Location: Nied?wied?
(53.3665°N, 14.8184°E)
Time: 23:05:41
(UTC+00:00)

SJ 16-02 - Pass Details

Date: 03 March 2021
Orbit: 605 x 617 km, 75.0° (Epoch: 12 April)

Event Time Altitude Azimuth Distance (km) Brightness Sun altitude
Rises 17:54:42 0° 341° (NNW) 2,884 5.1 -11.5°
Reaches altitude 10° 17:57:21 10° 356° (N) 1,978 4.1 -11.9°
Maximum altitude 18:00:54 23° 49° (NE) 1,312 2.7 -12.4°
Enters shadow 18:02:37 19° 82° (E) 1,495 2.7 -12.7°
